Regional Weather Roundup
Issued by NWS Northern Indiana

Home | Current Version | Previous Version | Text Only | Print | Product List | Glossary Off
Versions: 1 2 3 4 5 6 7 8 9 10 11 12 13 14 15 16 17 18 19 20 21 22 23 24 25 26 27 28 29 30 31 32 33 34 35 36 37 38 39 40 41 42 43 44 45 46 47 48 49 50

000
ASUS43 KIWX 250700
RWRIWX

KIWX WEATHER ROUNDUP
NATIONAL WEATHER SERVICE NORTHERN INDIANA
300 AM EDT SUN JUN 25 2017

NOTE: "FAIR" INDICATES FEW OR NO CLOUDS BELOW 12,000 FEET WITH NO
SIGNIFICANT WEATHER AND/OR OBSTRUCTIONS TO VISIBILITY.

* THESE STATIONS ARE NOT UNDER NWS QUALITY CONTROL. THEY ALSO MAY NOT
  REPORT WEATHER SUCH AS PRECIPITATION OR FOG.

INZ001>027-250800-
NORTHERN INDIANA

CITY           SKY/WX    TMP DP  RH WIND       PRES   REMARKS
GARY*          CLOUDY    62  45  53 SW3       30.05F
MICHIGAN CITY* CLOUDY    57  48  72 SW5       30.04F
KNOX*          MOCLDY    55  37  50 SW5       30.05F
SOUTH BEND     PTCLDY    56  48  74 SW7       30.04F
GOSHEN         CLEAR     55  46  71 SW9       30.04F
MONTICELLO*    CLEAR     57  49  74 SW7       30.07F
FORT WAYNE     CLEAR     55  49  80 SW9       30.07F

$$
INZ028>050-250800-
CENTRAL INDIANA

CITY           SKY/WX    TMP DP  RH WIND       PRES   REMARKS
LAFAYETTE      PTCLDY    53  51  93 W3        30.09F
KOKOMO*        CLEAR     57  48  72 SW7       30.09F
MUNCIE*        CLEAR     60  48  64 W7        30.10S
INDIANAPOLIS   CLEAR     56  50  80 SW6       30.11F

$$
MIZ043>046-050>051-056>058-064>065-071>073-077>080-250800-
SOUTHWEST LOWER MICHIGAN

CITY           SKY/WX    TMP DP  RH WIND       PRES   REMARKS
BATTLE CREEK   CLOUDY    57  52  83 SW8       30.01F
BENTON HARBOR  CLOUDY    63  50  62 SW6       30.02F
COLDWATER*     MOCLDY    58  50  75 SW5       30.02F
HILLSDALE*     PTCLDY    54  46  76 SW5       30.02F
HOLLAND        CLOUDY    61  47  59 W13G20    30.01S
GRAND RAPIDS   MOCLDY    58  51  78 W9        29.99S
KALAMAZOO      CLOUDY    59  50  72 SW9       30.02S
STURGIS*       MOCLDY    55  50  82 SW5       30.02F
THREE RIVERS*  MOCLDY    56  49  78 S5        30.03F

$$
OHZ001>008-015>018-024>025-250800-
NORTHWEST OHIO

CITY           SKY/WX    TMP DP  RH WIND       PRES   REMARKS
DEFIANCE       CLEAR     58  50  75 CALM      30.05F
FINDLAY        PTCLDY    62  53  72 W9        30.04S
TOLEDO EXPRESS CLEAR     58  51  78 SW8       30.03S
TOLEDO METCALF CLEAR     60  52  74 SW7       30.03S
LIMA           CLEAR     61  50  67 W9        30.06S

$$
AND FOR LAKE MICHIGAN COASTAL AND OPEN LAKE BUOY OBSERVATIONS

STATION/POSITION TEMP    WIND        PRES    VSBY  WAVE
                 AIR SEA DIR/SP/G                  HT/PER
                 (F)     (DEG/KT/KT) (MB)    (MI)  (FT/S)
CALUMET HARBOR    64     230/  5/  8 1017.0F
MICHIGAN CITY     63     210/ 10/ 11   N/A
BURNS HARBOR      65     240/ 11/ 13 1017.9F
SOUTH LAKE BUOY   62 62  310/ 21/ 25 1015.8          3/ 5
4 MI NW BRIDGMAN  65 68  250/ 12/ 14 1016.7F         2/ 4
MICHIGAN CITY     65 67  240/ 12/ 16   N/A           2/ 4

$$
&&




USA.gov is the U.S. government's official web portal to all federal, state and local government web resources and services.